Location: Brno
(49.2000°N, 16.6330°E)
Time: 20:33:46
(UTC+02:00)

X-37B - Pass Details

Date: 23 June 2021
Orbit: 383 x 392 km, 45.0° (Epoch: 01 July)

Event Time Altitude Azimuth Distance (km) Brightness Sun altitude
Rises 22:31:37 0° 227° (SW) 2,249 4.4 -10.6°
Reaches altitude 10° 22:33:58 10° 211° (SSW) 1,398 3.1 -10.8°
Maximum altitude 22:36:26 21° 159° (SSE) 913 1.8 -11.0°
Enters shadow 22:37:37 17° 128° (SE) 1,044 2.2 -11.1°
